TimeEET,TemperatureF,Dew PointF,Humidity,Sea Level PressureIn,VisibilityMPH,Wind Direction,Wind SpeedMPH,Gust SpeedMPH,PrecipitationIn,Events,Conditions,WindDirDegrees,DateUTC
12:50 AM,17.6,15.8,93,29.92,5.0,Calm,Calm,-,N/A,,Mostly Cloudy,0,2013-01-27 22:50:00
1:50 AM,14.0,14.0,100,29.92,6.2,NE,5.8,-,N/A,,Mostly Cloudy,40,2013-01-27 23:50:00
2:00 AM,15,14,92,,6,NE,5.8,,,,Partly Cloudy,40,2013-01-28 00:00:00
2:50 AM,17.6,15.8,93,29.95,2.5,NE,5.8,-,N/A,,Mostly Cloudy,40,2013-01-28 00:50:00
3:50 AM,19.4,17.6,93,29.95,0.2,Variable,1.2,-,N/A,Fog,Light Freezing Fog,0,2013-01-28 01:50:00
4:50 AM,12.2,12.2,100,29.98,0.2,Calm,Calm,-,N/A,Fog,Light Freezing Fog,0,2013-01-28 02:50:00
5:50 AM,10.4,8.6,92,29.98,0.1,Calm,Calm,-,N/A,Fog,Light Freezing Fog,0,2013-01-28 03:50:00
6:50 AM,6.8,3.2,85,29.98,0.1,Calm,Calm,-,N/A,Fog,Light Freezing Fog,0,2013-01-28 04:50:00
7:50 AM,10.4,8.6,92,30.01,0.1,Calm,Calm,-,N/A,Fog,Light Freezing Fog,0,2013-01-28 05:50:00
8:00 AM,10,9,93,,0,Calm,Calm,,,Fog,Heavy Fog,,2013-01-28 06:00:00
8:50 AM,10.4,8.6,92,30.01,0.1,Calm,Calm,-,N/A,Fog,Light Freezing Fog,0,2013-01-28 06:50:00
9:50 AM,21.2,21.2,100,30.04,2.2,Calm,Calm,-,N/A,Fog,Patches of Fog,0,2013-01-28 07:50:00
10:50 AM,21.2,21.2,100,30.01,2.5,Calm,Calm,-,N/A,Fog,Patches of Fog,0,2013-01-28 08:50:00
11:50 AM,24.8,24.8,100,29.98,2.5,Calm,Calm,-,N/A,Fog,Patches of Fog,0,2013-01-28 09:50:00
12:50 PM,23.0,23.0,100,29.98,3.7,NNE,4.6,-,N/A,,Scattered Clouds,30,2013-01-28 10:50:00
1:50 PM,23.0,21.2,93,29.98,3.7,Calm,Calm,-,N/A,,Mostly Cloudy,0,2013-01-28 11:50:00
2:00 PM,22,22,100,,4,Calm,Calm,,,,Mist,,2013-01-28 12:00:00
2:50 PM,19.4,19.4,100,29.98,3.7,ESE,5.8,-,N/A,,Mostly Cloudy,110,2013-01-28 12:50:00
3:50 PM,17.6,17.6,100,29.98,0.1,East,5.8,-,N/A,Fog,Light Freezing Fog,90,2013-01-28 13:50:00
4:50 PM,19.4,19.4,100,29.98,0.0,Calm,Calm,-,N/A,Fog,Light Freezing Fog,0,2013-01-28 14:50:00
5:50 PM,19.4,19.4,100,29.98,0.1,Variable,1.2,-,N/A,Fog,Light Freezing Fog,0,2013-01-28 15:50:00
6:50 PM,17.6,17.6,100,29.98,0.0,Calm,Calm,-,N/A,Fog,Light Freezing Fog,0,2013-01-28 16:50:00
7:50 PM,15.8,14.0,93,29.95,0.0,Variable,2.3,-,N/A,Fog,Light Freezing Fog,0,2013-01-28 17:50:00
8:00 PM,15,15,99,,0,WNW,2.3,,,Fog,Heavy Fog,290,2013-01-28 18:00:00
8:50 PM,15.8,14.0,93,29.95,0.1,Calm,Calm,-,N/A,Fog,Light Freezing Fog,0,2013-01-28 18:50:00
9:50 PM,14.0,14.0,100,29.92,0.1,South,2.3,-,N/A,Fog,Light Freezing Fog,170,2013-01-28 19:50:00
10:50 PM,14.0,14.0,100,29.92,0.5,ESE,3.5,-,N/A,Fog,Light Freezing Fog,120,2013-01-28 20:50:00
11:50 PM,14.0,12.2,93,29.86,0.2,NW,2.3,-,N/A,Fog,Light Freezing Fog,310,2013-01-28 21:50:00